Wind_Speed
38 36 34 33 31 29 27 25 24 24 24 23 22 21 21 21 20 21 20 19 18 16 15 15 15 15 16 17 17 16 16 17 18 19 20 21 22 23 24 25 27 28 28 29 29 28 28 29 30 31 32 32 32 32 32 33 33 33 32 31 31 32 33 35 36 37 38 38 38 38 38 38 39 40 42 42 41 40 36 29 24 24 25 28 31
39 38 38 35 33 30 28 27 27 27 26 24 22 22 22 22 23 23 22 21 20 18 17 16 16 17 17 18 19 19 19 20 21 22 23 24 24 25 26 27 28 30 30 31 32 31 31 31 32 33 34 35 35 35 35 36 36 36 35 35 35 35 36 37 38 39 40 41 42 42 41 41 41 41 42 42 41 40 35 28 25 24 25 28 32
40 39 38 36 33 31 30 29 29 28 26 24 22 22 23 24 25 25 24 23 22 21 19 19 18 18 18 19 20 21 21 22 23 24 25 26 27 28 28 29 30 31 32 32 34 35 35 34 34 35 36 37 38 38 38 38 38 38 38 38 38 38 39 39 40 41 42 43 44 44 44 44 43 43 43 43 42 40 35 28 26 27 27 29 33
40 39 38 35 33 32 31 30 29 29 27 25 23 23 24 26 26 26 26 25 25 24 22 21 20 20 20 21 22 23 24 25 27 28 29 29 30 30 31 32 32 33 33 34 35 37 38 38 37 37 38 39 40 41 42 41 41 41 41 42 42 42 42 43 43 44 44 45 46 46 46 46 45 44 43 43 42 40 35 29 28 29 30 31 33
40 39 38 36 34 33 31 31 31 31 30 28 26 26 27 28 28 28 28 28 27 26 25 24 23 23 23 24 25 26 28 30 31 32 32 33 33 33 33 33 34 35 35 35 36 38 40 41 41 41 41 42 43 44 44 44 44 44 45 46 46 46 47 47 47 47 47 47 48 48 48 48 48 46 44 42 40 38 34 30 29 30 32 33 34
40 39 38 37 35 34 34 33 33 33 32 31 30 30 30 30 30 30 30 30 29 28 27 27 26 26 27 28 29 30 32 33 34 34 36 36 36 35 35 35 36 37 37 38 38 40 41 43 44 45 45 46 46 46 46 46 47 48 49 50 50 51 51 51 51 51 50 49 49 49 49 48 48 47 44 41 38 36 32 29 29 31 33 35 35
40 39 38 38 37 37 36 36 35 34 34 33 33 33 33 32 31 31 31 32 32 30 29 29 29 30 30 32 33 34 35 36 37 37 38 39 39 38 37 38 38 39 40 40 41 42 44 45 47 48 49 49 49 49 49 50 50 52 53 54 55 55 55 55 55 54 53 52 50 50 49 48 46 45 43 40 36 34 31 29 30 32 34 36 36
42 41 40 39 40 39 39 38 37 36 36 35 35 35 34 33 33 33 33 33 33 32 32 32 33 34 34 35 37 38 38 39 40 40 40 41 41 41 40 40 41 42 43 43 44 45 46 47 49 50 51 52 52 53 53 54 54 55 56 57 58 58 58 58 57 56 54 52 51 50 47 45 44 42 39 36 33 32 30 30 30 32 35 36 37
44 43 42 42 41 41 40 39 38 37 37 36 35 35 34 34 34 34 34 34 34 34 34 35 36 37 37 38 39 40 41 42 42 42 42 42 42 43 43 43 44 45 46 47 48 48 49 50 51 53 54 55 56 57 57 58 58 58 58 59 59 59 59 58 57 55 53 50 49 48 45 41 39 38 35 32 31 30 30 30 31 33 35 36 38
45 45 44 43 42 41 41 40 39 38 36 35 35 35 35 35 35 35 36 36 36 36 36 37 38 38 39 40 41 42 42 43 44 44 44 43 43 44 45 46 47 48 49 50 50 51 53 54 55 56 58 59 60 60 60 60 60 60 59 59 59 59 58 56 54 53 50 46 44 44 42 38 35 34 31 28 28 30 31 31 32 34 35 35 38
45 45 45 44 43 42 42 41 40 38 37 37 37 37 37 37 37 37 38 37 37 37 37 38 39 39 40 41 42 43 44 45 45 45 45 45 45 46 48 49 50 50 51 53 54 55 56 58 59 59 60 61 61 61 60 59 59 58 57 57 57 56 54 52 51 49 46 43 40 39 37 35 32 29 27 27 28 30 31 32 32 33 34 35 38
46 45 45 44 43 43 42 42 41 39 39 39 39 38 38 39 39 39 38 38 37 37 38 39 39 40 42 43 44 45 46 46 46 46 46 46 47 48 50 52 53 54 55 56 58 59 59 60 60 60 60 60 60 59 58 57 55 54 54 54 54 54 52 49 47 45 42 40 37 35 32 29 27 26 26 27 30 31 31 31 32 32 33 34 37
46 45 45 45 44 43 43 43 42 41 40 40 39 40 40 39 39 39 39 38 39 39 40 41 42 43 45 46 46 47 48 48 48 48 48 49 49 51 53 55 57 58 59 59 60 60 60 59 58 57 57 56 56 56 55 54 52 51 51 52 52 52 50 47 44 41 38 36 33 29 25 24 24 25 27 28 29 31 32 31 31 31 32 34 37
47 46 46 45 45 44 44 43 43 42 41 41 41 41 41 40 39 40 40 41 41 42 42 43 44 45 46 47 48 49 49 50 50 51 51 52 52 54 56 58 59 60 60 59 59 58 57 55 54 54 53 53 53 53 53 52 50 49 49 50 50 50 49 46 42 38 35 31 26 23 23 24 25 26 28 28 28 28 31 32 32 31 32 36 39
47 47 46 46 46 45 45 44 43 43 43 42 42 43 43 42 42 42 43 43 44 44 44 45 46 46 47 48 50 51 51 52 54 54 55 55 56 56 57 57 58 57 57 56 55 54 53 52 51 51 51 50 51 51 51 51 51 49 48 48 47 48 48 46 41 36 31 25 20 21 23 26 27 28 28 29 29 29 29 32 33 33 34 37 41
47 47 46 47 47 46 45 44 44 44 44 44 44 44 44 44 44 43 44 44 45 45 45 46 47 47 48 50 52 53 55 56 57 58 58 57 57 56 55 54 52 52 51 51 51 50 50 50 50 50 49 49 49 50 50 50 50 50 49 47 46 45 46 45 41 35 29 23 20 23 27 29 31 32 32 32 32 31 31 32 33 34 36 38 41
48 47 47 47 46 45 45 44 44 44 45 45 45 44 44 44 44 44 44 45 46 46 46 48 49 50 51 53 54 55 56 57 58 58 57 56 53 51 49 48 48 47 47 47 47 47 48 48 48 48 48 47 48 49 50 49 49 50 49 46 45 44 44 42 39 35 29 24 23 26 29 31 33 37 39 39 36 34 34 35 35 35 37 39 41
49 48 48 47 46 46 45 45 45 45 45 46 45 45 45 45 45 45 46 46 47 48 49 51 52 53 53 54 54 54 54 54 53 52 51 50 48 47 46 45 45 46 45 45 45 45 46 47 47 47 47 47 47 49 49 48 48 48 47 46 44 44 42 38 36 35 30 24 24 28 30 33 36 40 42 42 39 37 37 37 37 36 37 40 43
49 49 49 48 47 47 47 47 47 47 47 47 47 47 47 47 47 48 48 49 50 51 52 52 52 52 52 51 50 49 48 47 47 46 46 45 45 45 45 45 45 45 44 44 44 44 45 46 47 47 46 47 48 50 50 49 48 47 46 46 44 42 39 35 33 32 29 25 27 31 33 36 38 38 38 39 40 40 40 40 38 37 38 41 44
50 50 50 50 49 49 49 48 48 48 48 48 48 48 49 49 49 49 49 49 50 49 49 49 48 47 46 44 44 43 43 43 43 44 44 44 44 44 44 45 45 43 42 43 45 46 47 47 48 49 48 48 49 50 51 50 49 47 46 46 44 39 35 31 27 28 31 33 33 33 32 33 34 34 35 38 40 41 41 40 40 39 40 42 44
52 51 51 51 51 50 50 49 49 49 49 48 48 48 49 48 48 47 47 46 45 44 43 42 41 41 40 39 40 40 40 41 42 43 44 44 44 44 43 44 43 42 42 44 46 48 49 49 50 51 51 51 51 52 52 52 50 48 47 47 44 36 29 28 29 31 35 37 37 35 34 34 35 37 39 39 40 41 41 41 42 42 41 43 45
53 52 52 52 52 51 50 49 48 46 46 45 45 45 44 44 43 42 41 40 39 39 38 37 37 37 37 38 38 39 40 40 41 43 44 45 45 44 44 45 45 43 44 46 48 49 50 51 52 51 52 55 55 54 54 54 53 51 47 46 45 36 27 30 36 40 43 42 40 39 40 41 42 44 45 44 43 42 42 43 45 44 42 43 46
50 50 49 48 47 46 45 44 43 41 41 40 40 40 39 39 38 38 37 36 36 36 36 36 36 36 37 37 38 39 40 41 42 44 45 46 46 46 47 48 48 47 47 49 51 51 51 51 50 48 51 55 57 57 57 56 55 53 48 46 45 37 31 35 41 43 46 47 44 42 44 46 48 49 49 47 45 42 42 44 47 46 44 44 47
43 41 40 39 38 38 37 37 37 37 37 37 36 36 36 36 36 36 36 36 35 36 36 36 36 36 37 37 38 39 41 42 43 45 47 48 48 48 49 50 50 50 50 51 54 54 53 52 49 47 50 55 57 59 60 58 57 54 49 47 44 38 37 43 42 39 40 42 41 41 43 45 47 48 47 46 44 42 42 44 46 46 44 44 47
37 36 36 35 36 35 35 36 36 36 35 35 35 35 35 35 35 36 36 36 36 37 37 37 37 38 38 39 40 41 42 43 44 45 47 49 50 50 51 52 52 52 52 53 55 56 56 55 52 50 54 58 59 61 62 61 59 54 50 48 43 39 43 46 38 31 33 34 34 37 40 40 42 43 43 43 43 43 43 44 46 45 44 44 47
37 37 37 37 37 37 37 37 37 36 36 36 37 37 37 37 37 37 38 38 38 39 39 39 40 40 41 42 42 43 44 45 45 46 47 49 51 53 54 54 55 55 55 55 57 58 58 58 56 55 58 62 63 64 64 63 60 54 50 48 43 42 46 44 32 27 32 34 35 37 39 40 42 43 44 45 44 44 45 46 46 45 45 45 47
39 39 40 39 39 39 39 39 39 39 38 39 39 40 40 40 40 40 41 41 41 42 42 43 43 43 44 45 45 46 47 47 48 47 47 49 51 54 55 56 57 58 57 58 59 60 60 61 61 61 62 63 64 65 64 64 62 55 50 48 45 42 42 37 31 34 41 41 39 39 38 40 42 45 48 49 48 47 47 47 46 46 46 46 47
42 42 42 41 41 41 41 41 41 41 42 42 42 42 43 43 43 43 44 44 44 45 45 46 46 46 47 48 48 49 50 50 50 50 50 50 52 54 56 57 59 60 60 61 61 61 62 63 64 63 61 60 60 61 61 62 61 56 50 47 46 43 38 37 38 42 41 37 35 36 37 39 43 48 51 52 50 49 48 47 47 48 48 47 46
44 44 44 43 43 43 44 44 44 44 45 45 45 45 46 46 46 46 46 46 47 48 48 48 49 49 50 51 51 51 52 53 53 53 53 53 53 54 57 59 60 62 63 63 63 62 63 63 62 60 57 55 54 55 56 58 57 54 49 46 45 44 40 39 40 39 34 32 34 37 39 43 50 56 56 54 52 51 50 48 48 50 49 47 47
47 46 46 46 46 47 47 46 47 48 48 48 48 49 49 49 49 49 49 49 50 51 51 51 52 52 53 54 54 55 55 56 56 56 56 56 56 56 58 60 62 63 64 64 63 62 62 61 60 57 55 53 53 54 56 56 53 50 46 43 43 44 41 37 37 35 32 32 33 35 42 51 58 61 58 53 52 53 51 49 49 50 50 49 49
50 50 50 50 50 51 51 50 50 52 51 51 52 52 52 53 52 52 52 53 54 54 54 55 55 56 56 57 58 58 58 58 59 59 59 59 58 59 60 61 63 64 65 64 62 62 62 60 58 58 56 55 56 59 59 56 51 47 44 40 38 39 37 36 38 42 45 47 48 51 57 62 65 65 59 55 55 55 52 50 51 51 51 51 52
54 54 54 55 54 55 54 53 54 55 55 55 55 55 56 56 56 56 57 57 57 57 58 58 59 59 60 60 61 61 61 60 61 61 62 61 61 62 63 63 64 65 65 63 62 62 62 60 59 59 58 57 59 62 61 57 51 46 42 39 36 35 34 34 39 47 55 61 63 66 68 68 68 67 62 59 58 56 50 51 54 53 53 54 55
57 57 58 58 58 58 58 57 58 58 58 58 58 58 59 59 59 60 61 61 61 61 61 62 62 63 63 64 64 64 64 64 64 64 64 64 64 64 65 65 66 66 65 63 62 62 62 61 60 59 59 59 61 62 60 58 54 47 43 42 40 37 34 36 44 54 62 64 65 65 66 66 66 65 63 60 60 56 52 53 55 54 54 57 59
60 60 60 61 61 61 61 61 61 61 62 61 61 62 62 62 62 63 64 65 65 65 65 65 66 66 66 67 67 67 67 67 67 67 67 67 67 67 67 67 68 67 66 64 63 62 62 61 60 58 59 60 62 63 61 58 55 49 44 44 43 39 37 40 48 55 58 60 62 65 64 62 61 60 60 61 60 58 57 56 54 53 55 59 62
63 63 63 63 63 63 64 64 64 64 65 65 65 65 65 65 66 66 66 68 68 68 69 69 69 70 70 70 70 70 69 69 69 69 69 69 69 69 69 69 69 69 67 66 64 63 63 63 61 60 60 61 63 64 61 56 54 49 44 43 43 43 42 41 45 48 48 45 46 51 57 62 62 59 59 61 59 57 57 56 54 54 56 59 63
67 67 66 66 67 67 67 67 67 67 67 68 68 68 68 68 69 69 69 70 71 71 72 72 72 73 73 73 73 73 72 72 72 71 71 72 71 71 70 69 69 69 67 65 64 63 64 64 63 63 64 63 65 66 61 56 53 48 43 43 46 47 45 39 39 45 48 42 36 40 50 60 64 62 61 61 59 56 56 57 56 56 57 60 64
70 70 70 70 70 70 70 70 70 70 70 70 70 70 71 71 71 72 72 73 73 74 74 74 75 75 76 77 77 77 76 75 75 74 74 74 73 73 71 70 69 68 65 64 63 63 63 64 65 67 67 66 67 68 63 58 53 47 43 44 48 49 47 41 37 40 41 38 39 46 52 56 61 63 63 61 58 56 55 54 52 53 57 63 67
73 73 73 73 73 73 73 72 72 72 73 73 73 73 73 74 74 75 75 76 76 77 77 77 77 78 78 79 80 80 79 79 78 77 77 77 76 75 73 71 70 68 65 63 62 62 62 63 65 68 70 69 69 69 64 59 53 46 42 44 48 50 50 46 42 40 37 37 42 50 53 52 57 63 64 61 59 58 56 50 48 52 59 65 68
77 77 76 76 76 76 75 75 75 75 75 76 75 76 76 77 78 78 79 79 79 79 79 79 80 80 81 82 82 82 83 82 81 80 80 79 78 76 74 73 71 67 64 62 62 63 63 62 64 68 71 71 71 69 64 59 54 46 41 43 47 49 50 47 42 38 37 39 44 48 49 51 57 62 62 59 56 55 52 49 49 55 63 67 69
80 80 79 79 79 78 78 78 78 78 78 78 79 79 80 81 81 82 82 82 82 82 81 81 82 83 84 84 84 85 85 84 83 82 82 81 80 78 75 73 71 68 64 63 63 63 63 61 63 66 69 70 71 69 64 59 53 45 41 43 46 46 45 44 41 39 39 43 45 45 46 50 56 59 58 55 51 49 50 52 55 60 64 67 69
83 83 82 82 82 81 81 81 81 81 81 82 82 83 83 84 84 84 84 84 84 84 84 84 85 86 86 86 86 87 87 86 85 84 83 82 81 79 76 74 71 68 66 64 63 63 62 61 62 65 67 68 69 68 64 57 50 43 42 44 45 44 41 40 40 39 40 42 42 43 46 50 53 55 55 52 51 53 57 60 61 63 64 67 70
85 85 85 84 84 84 84 84 84 84 84 85 85 85 85 86 86 85 85 85 86 86 86 86 86 87 88 88 89 89 89 88 87 85 84 83 81 79 77 74 72 69 66 64 63 62 63 63 61 61 63 64 65 66 64 56 47 43 43 44 45 44 41 39 37 38 39 40 40 40 43 47 49 50 52 54 56 59 62 63 63 64 65 66 68
86 86 86 87 87 87 87 87 87 87 87 86 87 87 87 87 86 86 86 87 88 88 88 88 88 89 90 90 91 91 90 89 87 86 84 83 80 78 76 74 72 69 66 64 63 63 64 63 59 56 58 59 59 61 62 56 46 42 43 44 43 42 41 40 38 36 36 38 36 35 40 48 51 51 53 58 61 61 62 64 65 66 66 66 67
88 88 88 88 88 88 88 88 88 88 88 87 87 88 88 88 88 88 88 89 90 90 90 91 91 91 92 92 92 92 91 89 88 87 85 83 81 78 76 73 71 69 67 66 66 66 66 64 59 55 55 56 56 58 60 54 46 43 43 44 42 38 36 36 36 33 32 35 36 37 42 51 55 56 59 63 64 63 64 66 67 67 67 68 67
90 90 91 91 90 90 90 90 90 90 90 90 90 90 91 91 91 91 92 92 93 93 93 93 93 94 94 93 93 92 91 90 89 87 86 83 79 77 74 72 71 71 71 70 70 69 69 68 65 60 58 57 57 59 59 53 46 45 45 45 44 40 35 33 33 34 36 40 45 49 53 57 61 64 66 67 67 66 67 68 69 69 68 66 63
94 94 94 94 94 94 94 94 94 94 94 94 94 94 95 95 94 94 95 95 95 95 95 95 95 95 95 94 93 92 92 91 89 87 85 82 79 77 75 74 74 74 74 73 73 73 72 72 72 68 64 62 60 61 60 53 46 47 47 47 47 46 41 37 37 40 45 51 56 59 61 64 66 68 68 67 66 67 69 69 68 67 65 63 62
96 97 97 97 98 97 97 97 97 97 97 97 97 97 98 97 97 96 97 97 97 97 97 97 97 97 96 95 95 94 93 91 88 84 81 80 79 78 77 77 77 77 75 75 76 77 77 77 76 75 72 68 64 63 62 55 47 48 50 49 50 51 48 44 44 48 54 61 65 66 66 65 65 67 68 67 67 67 67 67 66 65 64 65 66
94 95 96 97 98 99 99 99 99 100 100 100 100 100 100 99 99 99 99 99 99 99 99 99 98 98 97 96 95 93 90 87 84 80 78 78 79 80 80 80 79 78 77 77 78 81 82 82 81 80 77 73 67 63 63 59 51 50 53 53 53 55 54 51 52 56 62 67 71 73 71 68 66 67 68 68 67 67 67 67 67 68 69 69 69
98 98 99 99 100 100 101 101 102 102 102 102 102 102 102 101 101 101 100 100 100 100 100 100 100 99 98 96 93 89 85 81 79 78 79 79 80 81 81 80 80 81 81 81 82 83 85 87 87 85 82 78 70 63 61 60 55 52 55 56 56 57 57 56 57 63 68 72 75 78 77 73 70 69 69 69 69 70 70 70 70 70 70 70 69
104 103 103 103 103 103 103 104 104 105 105 105 104 104 104 103 103 103 102 102 102 101 101 100 100 98 95 92 88 85 83 81 80 81 81 82 82 82 82 82 83 84 86 87 88 87 88 89 90 90 87 80 71 63 60 60 57 53 54 58 60 61 62 62 62 66 71 75 78 80 80 78 76 74 74 73 73 73 73 71 69 68 68 68 68
107 107 106 106 106 105 105 106 106 106 107 106 106 106 105 104 104 104 103 103 103 102 101 100 98 96 92 89 86 84 83 83 83 83 84 84 84 84 85 85 87 88 89 90 92 92 92 92 92 93 92 87 77 67 62 62 59 54 52 57 61 64 66 67 69 72 76 79 81 82 82 82 81 79 78 77 75 73 70 68 66 66 66 66 66
Wind_Direction
209 209 212 214 216 217 217 218 221 225 228 230 232 234 237 239 240 242 243 243 244 246 251 255 260 265 270 276 281 284 289 292 296 299 302 304 307 308 310 310 311 312 312 312 312 312 313 314 315 316 318 319 321 322 323 323 323 322 322 321 320 320 320 321 322 323 325 325 326 327 327 328 329 330 331 332 332 332 329 321 318 323 328 331 332
210 211 213 215 215 214 215 217 220 225 229 231 233 235 237 238 239 241 242 242 243 246 250 254 259 263 269 277 284 289 293 295 297 300 302 304 306 307 308 308 308 309 310 310 310 310 311 312 313 314 315 316 317 318 319 319 319 319 319 319 318 318 318 318 319 320 321 322 323 324 324 325 325 326 328 328 329 329 326 317 310 313 321 328 331
212 213 215 216 216 216 219 223 227 230 233 235 239 241 242 243 243 243 244 243 244 247 250 255 260 265 270 278 285 289 294 297 299 301 303 304 305 305 305 305 305 305 306 307 307 308 309 309 310 311 312 313 314 315 316 316 317 317 317 317 316 316 316 316 317 318 318 319 319 320 320 321 322 323 325 325 325 326 324 314 306 308 315 323 328
213 215 217 217 219 222 226 231 233 235 237 240 245 248 249 249 248 246 245 245 247 249 253 258 264 269 274 278 282 287 292 295 298 301 303 303 303 302 302 302 302 302 304 305 305 306 306 307 307 308 309 311 311 312 313 314 315 315 315 315 314 314 314 314 314 315 315 315 316 316 316 317 318 319 321 322 321 322 321 313 306 308 312 318 324
214 215 217 219 222 226 231 235 237 238 240 243 248 251 253 253 252 249 248 248 251 253 257 262 267 273 277 280 283 287 291 294 297 298 300 302 302 301 300 300 300 300 301 302 303 303 304 305 306 307 308 309 310 310 311 312 313 312 312 311 311 312 311 311 311 311 311 312 312 312 313 314 315 316 317 318 317 318 318 312 307 308 311 315 320
216 216 218 221 226 230 234 238 240 241 243 246 249 251 252 253 253 252 251 252 255 257 260 265 269 274 278 282 286 288 291 293 294 296 297 299 300 300 300 299 299 299 300 300 301 302 303 304 305 307 308 308 309 309 309 309 310 309 309 309 309 309 309 309 309 309 308 308 308 309 310 311 312 312 314 314 314 315 314 309 306 307 310 313 316
218 219 221 225 229 233 236 240 242 244 246 248 250 251 252 253 253 252 252 254 257 260 263 267 271 274 278 282 285 287 289 291 293 294 296 298 299 299 298 298 298 299 299 300 301 302 303 304 305 306 307 307 307 307 307 307 307 307 306 306 307 307 307 307 307 307 307 307 307 307 307 308 309 309 309 310 310 310 309 306 305 306 309 311 313
221 222 224 228 232 235 238 241 243 245 247 249 251 251 252 253 254 254 254 256 260 262 265 268 271 274 278 280 283 285 288 291 292 294 296 297 298 298 298 298 299 299 300 301 302 302 303 303 304 304 304 305 305 305 305 305 305 305 304 304 304 305 305 305 306 306 307 307 307 306 306 306 306 305 305 306 305 306 305 303 303 305 308 311 312
224 225 227 230 233 236 238 240 243 245 247 249 250 251 252 254 256 257 257 259 261 263 265 267 270 273 276 279 282 286 289 291 293 294 295 296 297 298 299 299 299 300 300 301 301 302 302 302 302 302 302 302 303 303 304 303 303 303 302 303 303 303 304 304 305 306 306 307 307 306 306 306 304 302 302 301 301 301 303 302 303 305 308 310 313
226 228 229 230 233 236 238 240 242 244 247 248 249 250 250 252 255 257 258 259 260 262 264 267 270 273 277 280 283 286 288 290 292 293 294 295 296 297 298 298 298 298 299 299 300 300 300 300 300 300 300 300 301 301 301 301 301 301 302 303 302 302 303 305 306 306 307 308 307 306 306 305 302 299 298 297 297 299 303 304 305 307 309 311 313
226 228 229 230 232 235 239 241 243 245 246 247 247 248 249 251 253 255 257 258 261 263 266 268 271 275 277 280 283 285 287 288 289 290 292 294 295 296 296 296 296 297 297 298 298 298 298 299 299 299 298 298 298 299 299 299 301 302 303 303 302 303 304 306 307 308 309 310 308 306 304 302 298 297 297 297 299 302 306 308 309 310 312 311 313
227 229 231 232 233 236 239 243 244 245 246 247 248 249 250 251 253 255 258 260 262 265 268 271 273 275 277 279 281 283 285 287 288 290 292 293 294 294 294 295 296 296 296 296 296 297 297 297 297 297 297 297 297 298 299 301 303 304 305 304 303 304 306 307 308 309 310 309 307 304 300 297 295 296 298 300 304 307 310 313 314 314 314 313 313
229 230 232 235 236 238 240 243 245 246 247 248 250 251 251 253 255 257 260 262 264 266 268 271 273 275 277 279 281 283 285 287 289 290 291 292 293 293 294 294 294 295 295 295 295 295 296 296 297 297 297 298 299 299 301 303 305 306 305 304 305 307 308 308 308 309 310 309 306 300 294 291 292 296 299 303 307 309 311 314 315 315 314 314 315
230 231 233 236 238 240 241 243 245 247 248 250 251 253 254 255 257 259 261 263 265 267 269 271 274 276 279 281 283 284 286 287 288 289 290 291 292 292 292 293 293 293 294 294 295 295 296 297 298 298 299 300 301 302 304 305 306 306 306 307 309 310 310 310 310 310 310 308 301 292 286 287 291 297 302 305 308 311 312 313 316 315 314 314 315
232 234 235 237 239 241 242 244 246 248 250 251 253 254 256 257 258 260 262 265 267 269 272 274 276 278 280 282 284 285 286 287 288 288 289 290 291 291 291 291 292 293 294 295 296 297 298 299 299 300 301 302 304 305 306 307 309 310 310 311 312 312 311 310 309 310 309 303 290 284 286 290 295 301 307 309 311 313 313 312 314 315 313 314 316
234 236 237 239 241 243 244 246 248 250 252 253 254 255 257 259 260 262 264 267 269 271 274 276 277 279 281 282 284 285 286 286 286 287 288 289 289 290 291 292 292 293 295 297 298 300 300 301 301 302 303 304 305 306 306 308 310 311 312 313 313 312 310 309 309 309 305 293 282 284 290 294 300 305 310 312 313 313 313 311 312 313 312 314 318
235 237 239 240 242 244 246 248 249 251 253 254 256 258 259 262 263 265 267 269 271 273 275 277 278 280 281 282 283 283 284 284 285 286 287 288 290 291 292 293 293 294 296 297 299 300 300 301 301 302 303 304 305 304 305 308 309 311 312 313 313 311 308 308 308 305 298 288 282 287 293 298 303 306 308 311 312 312 312 311 311 313 312 313 317
238 239 241 242 244 245 247 249 250 252 254 256 258 260 262 264 266 267 269 271 273 275 276 277 278 279 280 281 281 282 283 284 285 287 289 291 293 294 295 295 295 296 298 300 299 299 299 300 300 301 302 304 304 304 305 307 309 310 310 311 311 310 308 307 307 302 296 289 285 290 294 298 301 302 303 306 309 309 310 311 311 312 311 311 315
241 243 244 246 247 248 249 251 252 254 256 258 260 262 264 266 268 269 271 272 274 275 275 276 277 277 278 279 280 281 283 285 287 289 291 293 294 295 296 296 297 299 300 300 299 299 299 301 302 303 303 304 305 306 308 309 310 310 310 309 310 310 308 308 306 301 299 296 292 293 295 299 302 303 302 304 306 307 308 309 310 311 310 312 317
245 246 247 248 249 251 252 253 255 257 259 261 263 265 266 267 268 270 271 271 272 273 273 274 275 276 277 278 280 282 285 287 289 290 291 292 293 294 294 295 296 299 300 300 300 301 302 303 305 306 306 306 307 309 310 311 311 311 310 308 308 310 310 309 305 302 304 304 299 295 297 303 309 311 308 306 306 307 308 308 308 309 309 312 316
246 247 249 250 251 253 254 256 258 260 261 262 263 264 265 266 266 267 267 268 269 270 271 273 275 277 279 281 283 285 287 288 289 290 291 291 292 293 293 294 296 299 301 301 301 303 304 305 306 308 308 308 309 310 310 310 311 311 309 306 305 307 310 310 305 301 304 304 300 296 297 302 308 312 312 309 307 307 308 307 306 308 309 309 309
248 249 251 253 254 255 256 256 257 258 258 259 260 261 262 262 263 264 264 265 267 269 271 273 276 278 281 283 284 285 287 288 289 290 290 291 293 295 296 297 299 301 302 302 302 303 304 305 306 308 308 308 308 309 308 308 309 309 308 305 302 299 302 309 307 301 298 296 294 293 294 295 299 304 307 308 306 305 306 305 305 306 305 305 305
248 250 251 252 253 253 253 253 252 252 253 254 255 258 259 261 262 264 265 267 268 270 273 275 277 279 280 282 284 285 286 288 289 290 291 293 295 298 299 300 301 303 304 304 303 303 303 304 305 306 305 305 306 306 306 305 306 307 307 306 300 292 296 306 304 298 293 290 288 289 290 292 294 297 300 302 302 301 301 300 302 303 301 301 303
242 243 244 245 246 247 247 248 248 249 251 253 255 257 259 261 263 265 267 269 271 273 275 276 278 280 281 282 284 285 286 288 289 292 294 295 298 299 300 300 301 302 303 303 302 302 303 304 305 304 303 303 303 303 303 303 303 304 306 306 300 290 296 305 302 297 296 294 291 291 291 291 293 295 298 300 299 298 297 297 299 300 297 297 303
235 235 237 239 241 242 244 247 248 250 252 254 256 258 259 261 263 265 268 270 272 274 276 277 280 282 283 284 285 286 287 289 291 293 294 296 298 299 299 300 301 301 302 302 302 302 303 304 304 303 302 301 301 301 300 300 301 301 304 306 299 288 295 304 301 298 302 300 297 297 296 295 297 300 303 303 298 295 295 296 298 298 292 293 303
235 236 237 238 240 242 244 247 250 252 255 257 259 260 261 262 263 265 267 269 272 274 276 278 281 283 284 285 286 287 289 290 290 292 294 296 298 298 299 300 301 301 302 302 302 302 303 303 302 302 300 300 299 299 299 298 299 300 302 305 298 288 292 298 297 299 301 298 298 301 299 297 301 304 307 305 300 295 293 295 298 296 290 292 302
236 238 239 239 241 243 245 248 250 252 255 257 259 261 263 264 265 267 269 271 274 277 279 280 282 283 285 286 287 289 290 290 291 293 294 295 296 297 298 300 300 301 302 302 302 303 303 303 302 302 300 299 299 299 299 299 299 299 300 301 299 292 289 288 291 300 300 293 292 297 298 299 304 309 309 306 301 296 295 295 297 294 289 292 300
239 240 242 243 244 245 247 249 250 252 254 256 258 260 262 264 266 268 270 273 275 277 279 281 282 284 285 287 288 289 290 291 292 294 294 294 295 296 298 299 300 301 302 302 303 303 303 304 304 304 302 301 301 301 302 301 300 299 297 298 298 296 291 286 291 300 302 294 290 292 295 300 306 311 311 308 301 296 295 296 294 291 289 291 298
242 244 245 247 248 250 251 252 253 255 256 258 259 261 263 265 268 270 272 274 276 278 279 281 283 285 286 287 288 289 290 291 292 293 294 294 296 297 299 300 301 301 302 302 303 303 303 304 305 304 302 301 302 304 305 305 302 299 296 295 295 296 295 292 292 297 301 301 297 293 293 299 304 306 306 305 302 298 296 295 292 288 287 290 295
246 247 249 251 252 254 255 256 257 258 259 261 263 265 266 268 270 272 275 276 278 280 282 283 285 286 287 288 289 290 291 292 293 294 295 296 297 299 299 300 301 301 301 302 303 303 302 304 305 305 302 299 300 304 307 307 304 299 294 292 293 294 293 290 289 292 298 303 301 294 294 300 305 305 303 301 302 301 297 293 291 287 286 289 293
249 250 252 253 254 256 257 258 260 261 262 263 265 266 268 270 272 274 276 277 279 281 283 285 286 287 288 289 290 291 292 293 294 295 296 298 299 300 300 300 300 300 301 302 302 302 302 303 305 305 303 300 300 302 305 307 305 298 289 285 286 286 284 280 278 282 290 294 292 290 293 297 302 303 300 296 299 302 297 292 291 288 286 289 292
250 252 253 255 256 258 259 260 261 263 264 265 266 268 270 272 273 275 276 278 280 282 284 285 287 288 289 290 291 292 293 294 295 296 297 299 300 300 300 300 301 301 301 301 301 300 300 302 303 304 303 300 300 300 302 305 304 295 283 275 269 267 270 272 273 276 281 281 278 280 284 286 291 295 294 291 295 298 294 289 289 289 287 288 291
251 253 255 256 257 259 259 261 262 264 265 266 267 269 271 272 274 276 277 279 281 282 284 286 288 289 291 292 292 293 294 295 296 297 298 299 300 300 301 301 300 300 300 300 298 298 298 300 301 301 300 299 299 299 300 303 303 295 281 271 264 258 260 268 272 274 277 275 273 273 275 277 281 286 287 285 289 292 289 286 287 288 286 287 289
253 254 256 257 258 259 261 262 264 265 266 268 269 270 271 273 274 276 278 280 282 284 285 287 288 290 291 292 293 294 295 296 297 298 299 300 300 301 301 301 300 300 299 298 297 296 296 297 297 297 298 298 299 299 299 300 301 295 281 272 266 255 253 263 270 273 276 276 274 272 271 273 278 282 281 280 283 286 285 284 286 286 285 286 287
254 255 257 258 260 261 262 264 265 266 267 269 270 271 272 274 275 277 279 281 283 284 286 287 289 290 291 292 293 294 294 295 296 297 298 299 300 301 301 300 300 300 299 298 297 296 296 296 295 295 297 299 300 301 299 298 298 293 279 271 264 253 251 266 276 277 277 277 277 276 272 271 273 276 277 277 278 280 279 278 280 284 286 286 286
255 257 258 260 261 263 264 265 266 267 268 269 271 272 273 275 276 278 279 281 283 284 286 288 289 290 291 292 293 293 294 295 296 297 298 299 300 300 300 300 299 299 298 297 296 296 296 296 295 296 298 301 302 302 300 297 296 289 275 267 262 255 257 268 277 274 270 270 276 282 278 271 267 269 273 276 274 274 274 275 278 285 288 287 287
256 258 259 261 262 263 264 265 267 268 269 270 271 273 274 276 277 279 280 281 283 284 286 287 289 290 291 292 292 293 294 295 295 296 298 299 299 300 299 299 299 298 296 295 295 295 295 295 295 297 300 302 303 303 301 297 294 287 274 265 261 259 261 266 270 270 266 262 266 274 276 272 268 268 272 274 271 269 272 276 280 285 287 285 286
257 258 259 261 262 263 265 266 267 269 270 271 272 274 275 276 277 279 280 281 283 284 286 287 288 289 290 291 292 293 294 295 296 297 298 299 299 299 299 299 297 296 295 294 295 295 295 295 296 299 301 303 304 303 301 297 291 284 273 265 262 261 261 263 267 270 264 258 261 267 268 270 271 271 270 270 267 267 270 274 277 280 280 280 283
258 259 260 261 262 264 265 266 268 269 270 271 272 274 275 276 277 278 280 281 283 284 286 287 288 289 290 291 292 293 293 294 296 297 297 298 298 298 298 297 296 295 294 294 295 296 296 296 296 299 301 303 303 302 301 297 291 282 271 264 263 264 263 263 267 270 265 258 259 261 261 266 270 269 266 264 264 266 269 269 271 273 274 275 279
260 261 262 263 264 265 266 267 268 269 270 271 272 274 275 276 277 279 280 282 283 285 286 287 287 288 289 290 291 292 293 294 295 296 296 296 296 296 296 295 294 294 294 295 295 296 297 296 297 299 300 301 301 301 299 296 290 281 269 263 263 265 265 265 267 269 264 259 258 259 261 264 264 261 260 261 263 264 263 263 264 267 269 273 279
261 262 263 264 265 265 266 267 268 269 271 272 273 274 275 277 278 280 281 282 283 284 285 286 286 287 288 289 290 291 292 292 293 294 294 294 295 295 294 294 293 294 295 295 296 296 297 297 297 298 300 300 300 299 298 295 288 279 268 262 262 265 267 268 269 267 261 258 258 260 262 262 261 261 263 263 262 261 260 261 264 267 270 275 280
260 261 262 264 264 265 266 267 268 270 271 272 273 274 276 277 278 279 280 281 282 283 284 285 285 286 287 288 289 289 290 291 292 293 293 294 294 294 294 293 294 295 295 296 296 296 296 297 298 300 301 301 299 298 296 293 285 274 264 260 261 264 265 266 267 267 263 258 255 256 259 262 265 269 270 266 261 261 262 264 267 270 274 277 280
259 260 261 262 264 265 266 267 268 269 270 272 273 274 275 276 277 278 279 279 280 281 283 283 284 285 286 287 288 288 289 291 291 292 293 293 293 293 293 294 295 296 296 296 296 296 297 299 300 302 303 301 297 294 292 289 282 269 258 255 258 263 264 260 257 257 260 259 254 253 259 263 263 264 265 264 261 261 262 264 267 271 275 277 278
257 259 260 261 262 264 265 266 267 268 269 270 271 272 273 274 275 276 277 278 279 280 281 282 283 284 285 286 287 288 289 290 291 292 292 293 293 293 294 295 295 296 296 296 296 298 300 301 301 303 306 304 297 291 288 285 276 264 254 251 252 254 255 254 252 252 258 261 255 250 253 255 254 254 257 259 260 260 262 265 269 272 275 276 276
256 258 259 260 261 262 263 264 265 267 267 268 269 270 271 273 274 275 276 277 278 280 281 282 283 284 285 286 287 288 289 290 291 292 292 293 293 294 295 296 296 297 297 298 299 301 303 303 303 306 310 311 303 293 288 284 271 257 251 249 246 241 238 242 249 253 254 252 245 239 239 241 245 249 253 256 259 262 265 267 270 272 273 274 275
256 257 259 260 261 262 263 264 265 266 268 268 270 271 272 273 274 275 277 278 279 280 281 282 283 284 285 286 287 288 289 290 291 292 292 292 293 294 295 296 297 298 299 300 301 302 302 304 305 307 311 314 308 298 292 285 270 254 247 245 241 237 234 236 241 243 241 237 234 232 234 238 243 247 251 255 259 263 265 268 269 271 272 274 277
257 258 259 260 262 263 264 265 266 267 268 269 270 271 272 274 275 276 277 278 279 280 281 282 283 284 285 286 287 288 289 290 291 291 292 292 293 294 295 296 297 298 298 298 299 300 301 302 304 305 309 313 311 303 296 288 271 252 244 242 238 234 233 235 238 238 237 235 235 235 237 241 244 246 249 254 259 262 264 267 269 271 275 278 281
258 259 260 261 263 264 265 266 267 268 269 270 271 272 273 274 275 276 277 278 280 281 282 282 283 284 285 286 287 288 289 290 290 290 290 290 290 292 293 295 296 296 296 296 297 298 299 301 303 304 306 310 311 303 296 291 278 256 244 240 237 233 231 233 235 237 236 236 238 241 243 245 247 249 251 255 260 264 267 269 272 275 278 280 281
260 261 261 263 264 265 266 266 267 268 269 270 271 272 273 274 275 276 277 278 279 280 281 282 283 284 285 286 287 288 288 288 288 288 288 289 289 290 291 292 293 294 294 293 294 296 297 298 301 303 305 308 310 304 295 291 284 266 248 240 236 234 232 232 233 234 235 235 236 239 243 246 250 253 256 260 264 268 270 273 275 278 279 281 282
261 261 262 263 264 265 266 267 268 269 270 270 271 272 273 274 275 276 277 278 278 279 280 281 282 284 284 285 285 286 285 285 285 285 286 287 288 288 288 289 290 291 291 292 292 294 294 296 299 302 304 307 310 306 296 291 287 275 259 246 239 236 235 234 233 234 235 236 236 238 242 246 251 256 260 263 267 270 273 275 276 278 280 281 282
261 261 262 263 264 264 266 267 268 269 270 271 271 272 273 274 275 276 276 277 278 279 280 281 282 282 283 283 283 283 283 283 283 283 283 284 284 285 286 286 287 288 289 290 291 293 294 295 298 300 303 305 308 308 300 292 287 281 268 256 247 242 238 237 235 234 235 237 239 242 245 249 254 258 262 265 268 271 273 274 275 276 277 277 277
Height
10977 10980 10981 10983 10985 10987 10989 10990 10991 10991 10991 10992 10994 10995 10996 10997 10998 10998 10999 11000 11001 11001 11002 11002 11003 11003 11003 11003 11003 11003 11003 11003 11003 11003 11002 11002 11002 11001 11000 10999 10997 10996 10995 10994 10993 10992 10991 10990 10988 10987 10985 10985 10984 10983 10982 10980 10979 10978 10976 10975 10973 10971 10969 10966 10964 10962 10960 10959 10957 10956 10954 10952 10950 10947 10944 10942 10940 10937 10934 10932 10930 10927 10925 10922 10919
10975 10977 10979 10981 10983 10985 10986 10987 10987 10988 10989 10991 10992 10993 10994 10994 10995 10995 10996 10998 10998 10999 11000 11000 11001 11001 11001 11001 11001 11001 11001 11001 11001 11001 11000 11000 10999 10999 10998 10997 10995 10993 10992 10991 10989 10989 10988 10987 10986 10984 10982 10981 10980 10979 10978 10977 10976 10974 10973 10971 10969 10968 10965 10963 10961 10958 10956 10954 10952 10950 10948 10947 10946 10944 10941 10938 10936 10934 10931 10929 10927 10925 10922 10919 10916
10973 10975 10977 10979 10982 10983 10984 10985 10986 10987 10988 10989 10991 10991 10992 10992 10992 10993 10994 10995 10996 10997 10998 10998 10999 10999 10999 10999 10999 10999 10999 10999 10998 10998 10998 10998 10997 10996 10995 10994 10993 10991 10990 10988 10987 10985 10984 10983 10983 10981 10980 10978 10976 10975 10974 10973 10972 10970 10969 10967 10965 10964 10962 10959 10957 10954 10952 10949 10947 10945 10943 10941 10940 10938 10936 10934 10932 10930 10928 10926 10924 10922 10919 10916 10912
10971 10973 10975 10978 10980 10981 10982 10983 10984 10985 10986 10988 10989 10990 10990 10990 10991 10992 10992 10993 10994 10995 10995 10996 10997 10997 10997 10997 10997 10996 10996 10996 10996 10995 10995 10995 10994 10993 10992 10991 10990 10989 10987 10986 10984 10982 10980 10979 10978 10978 10976 10975 10973 10971 10970 10969 10968 10966 10964 10963 10961 10959 10957 10955 10953 10951 10948 10946 10943 10940 10938 10936 10935 10933 10932 10930 10927 10925 10923 10921 10920 10918 10916 10913 10910
10968 10970 10973 10975 10976 10977 10979 10980 10981 10982 10984 10986 10987 10987 10987 10988 10988 10990 10990 10991 10992 10992 10993 10994 10994 10994 10994 10994 10994 10994 10993 10993 10993 10992 10991 10991 10991 10990 10989 10988 10986 10985 10984 10983 10981 10979 10977 10975 10974 10973 10973 10971 10970 10968 10966 10965 10963 10961 10960 10958 10956 10954 10953 10951 10949 10947 10945 10942 10939 10936 10934 10931 10929 10927 10927 10925 10923 10921 10919 10917 10915 10914 10912 10909 10906
10965 10967 10970 10972 10973 10974 10975 10976 10978 10980 10981 10983 10984 10984 10984 10985 10986 10987 10988 10988 10989 10990 10991 10991 10991 10992 10992 10991 10991 10991 10990 10990 10989 10989 10988 10987 10987 10986 10985 10984 10983 10982 10981 10980 10978 10976 10974 10972 10970 10969 10968 10967 10966 10964 10963 10961 10959 10956 10954 10952 10951 10949 10947 10945 10944 10942 10941 10939 10936 10933 10930 10927 10924 10922 10921 10920 10918 10916 10914 10912 10911 10909 10907 10905 10902
10962 10965 10967 10968 10969 10970 10972 10973 10975 10977 10978 10980 10980 10981 10981 10982 10983 10984 10985 10986 10986 10987 10988 10988 10989 10989 10989 10988 10987 10987 10987 10986 10986 10985 10985 10984 10983 10983 10982 10980 10979 10978 10977 10976 10975 10973 10971 10969 10967 10965 10963 10962 10961 10959 10958 10957 10955 10952 10949 10946 10944 10943 10941 10939 10938 10936 10935 10933 10931 10928 10926 10923 10920 10918 10916 10914 10913 10911 10909 10908 10906 10905 10902 10900 10897
10958 10961 10963 10964 10965 10966 10968 10970 10972 10974 10975 10976 10977 10977 10978 10979 10980 10981 10982 10982 10983 10984 10985 10985 10985 10985 10985 10984 10983 10983 10983 10983 10982 10982 10981 10980 10979 10978 10978 10976 10975 10974 10973 10971 10970 10969 10967 10965 10963 10961 10959 10957 10955 10954 10952 10951 10949 10947 10944 10941 10938 10936 10934 10933 10931 10930 10928 10926 10924 10922 10920 10918 10915 10913 10911 10909 10907 10906 10904 10903 10902 10900 10898 10895 10892
10953 10956 10958 10959 10960 10962 10965 10967 10968 10970 10971 10972 10973 10974 10975 10976 10976 10977 10978 10979 10980 10980 10981 10981 10981 10981 10981 10980 10980 10979 10979 10979 10978 10977 10977 10976 10975 10974 10973 10972 10971 10969 10968 10967 10965 10964 10963 10961 10959 10956 10954 10951 10950 10948 10946 10944 10943 10941 10939 10936 10933 10930 10928 10926 10925 10923 10922 10920 10916 10914 10913 10912 10910 10907 10906 10904 10902 10901 10899 10899 10897 10896 10894 10892 10888
10949 10952 10953 10955 10957 10959 10961 10962 10964 10966 10967 10969 10970 10970 10972 10973 10973 10974 10974 10975 10976 10977 10977 10977 10977 10977 10977 10976 10976 10975 10975 10975 10974 10973 10973 10972 10972 10970 10968 10967 10966 10965 10963 10962 10961 10959 10957 10956 10954 10951 10948 10946 10944 10943 10941 10939 10936 10935 10933 10930 10927 10924 10922 10920 10918 10916 10915 10913 10911 10908 10906 10905 10904 10902 10901 10900 10898 10897 10895 10894 10893 10892 10890 10888 10885
10945 10947 10949 10951 10953 10955 10956 10957 10960 10962 10964 10965 10966 10967 10968 10969 10969 10970 10971 10972 10973 10974 10974 10974 10974 10974 10973 10972 10972 10971 10971 10970 10970 10969 10969 10968 10968 10966 10964 10962 10961 10961 10959 10957 10955 10954 10952 10950 10948 10945 10943 10940 10937 10936 10935 10933 10931 10929 10927 10924 10921 10918 10916 10915 10913 10910 10908 10907 10905 10903 10901 10899 10898 10897 10896 10895 10894 10893 10892 10891 10889 10888 10886 10884 10882
10940 10943 10945 10947 10949 10951 10952 10954 10956 10958 10960 10961 10962 10963 10965 10965 10965 10966 10967 10969 10970 10970 10970 10970 10969 10969 10968 10968 10967 10966 10966 10966 10965 10965 10965 10964 10964 10962 10960 10957 10956 10955 10954 10952 10950 10948 10946 10944 10942 10939 10937 10933 10930 10928 10927 10927 10926 10924 10921 10917 10914 10911 10910 10909 10907 10905 10903 10901 10899 10898 10896 10895 10894 10893 10893 10892 10891 10889 10888 10887 10886 10884 10883 10881 10879
10936 10938 10940 10943 10945 10947 10949 10950 10952 10954 10956 10957 10959 10959 10961 10961 10962 10963 10964 10965 10965 10965 10966 10966 10965 10965 10964 10963 10963 10962 10961 10961 10960 10960 10960 10960 10960 10958 10955 10952 10950 10949 10948 10946 10944 10942 10940 10939 10936 10933 10931 10928 10924 10922 10922 10921 10921 10919 10915 10911 10908 10905 10903 10902 10901 10900 10898 10896 10894 10893 10892 10891 10890 10890 10889 10889 10888 10886 10884 10883 10882 10880 10878 10876 10874
10931 10934 10936 10939 10940 10943 10945 10947 10948 10950 10952 10954 10955 10955 10956 10958 10959 10960 10960 10960 10960 10960 10961 10961 10961 10961 10960 10958 10957 10957 10956 10956 10955 10955 10955 10954 10954 10953 10951 10948 10944 10942 10941 10940 10938 10936 10934 10932 10930 10928 10926 10923 10919 10917 10916 10915 10915 10914 10911 10907 10904 10900 10897 10895 10895 10894 10893 10891 10889 10888 10887 10887 10886 10886 10885 10884 10884 10883 10880 10878 10877 10875 10873 10871 10869
10927 10930 10933 10935 10936 10938 10941 10943 10945 10946 10947 10949 10950 10951 10951 10953 10955 10956 10956 10956 10956 10956 10957 10957 10957 10956 10955 10954 10952 10951 10951 10950 10949 10948 10949 10949 10948 10947 10946 10943 10940 10937 10935 10933 10932 10930 10928 10926 10924 10922 10920 10918 10915 10913 10911 10910 10908 10908 10906 10904 10901 10897 10892 10889 10889 10889 10889 10887 10886 10884 10883 10882 10882 10881 10881 10879 10878 10878 10876 10874 10872 10870 10869 10866 10863
10924 10926 10928 10930 10932 10934 10937 10939 10941 10942 10943 10944 10945 10946 10947 10948 10950 10951 10951 10951 10952 10952 10953 10952 10952 10951 10951 10949 10947 10946 10945 10944 10942 10942 10942 10942 10943 10942 10940 10938 10935 10932 10930 10928 10926 10924 10922 10920 10918 10916 10915 10914 10911 10908 10907 10906 10904 10902 10901 10899 10897 10894 10889 10885 10884 10885 10884 10883 10882 10881 10879 10878 10877 10876 10876 10874 10872 10871 10871 10869 10868 10866 10864 10862 10860
10920 10922 10924 10926 10929 10931 10933 10935 10936 10937 10938 10939 10940 10942 10943 10944 10945 10946 10947 10947 10947 10948 10948 10947 10946 10946 10945 10944 10942 10940 10939 10937 10936 10935 10935 10936 10936 10936 10934 10933 10930 10928 10927 10925 10923 10920 10917 10915 10913 10911 10909 10909 10907 10904 10902 10902 10900 10897 10896 10895 10893 10889 10886 10883 10880 10880 10880 10879 10878 10878 10876 10874 10873 10871 10869 10868 10867 10866 10865 10864 10863 10861 10859 10857 10855
10916 10918 10920 10922 10925 10927 10928 10930 10931 10932 10933 10934 10936 10937 10938 10939 10940 10941 10942 10942 10942 10943 10942 10942 10941 10940 10939 10938 10936 10934 10933 10931 10930 10929 10929 10929 10929 10928 10928 10927 10925 10923 10922 10921 10919 10916 10913 10910 10908 10906 10905 10904 10903 10900 10898 10898 10897 10894 10891 10890 10888 10885 10882 10880 10877 10875 10875 10876 10875 10874 10873 10871 10869 10867 10864 10862 10861 10860 10859 10858 10857 10855 10853 10851 10850
10911 10914 10916 10918 10920 10922 10923 10925 10926 10927 10929 10930 10931 10932 10933 10934 10935 10936 10937 10937 10937 10937 10936 10935 10935 10935 10934 10932 10931 10929 10928 10927 10926 10925 10924 10924 10924 10923 10922 10921 10920 10919 10918 10916 10914 10912 10910 10907 10904 10902 10901 10901 10898 10895 10894 10894 10892 10890 10887 10885 10884 10882 10878 10877 10875 10871 10871 10872 10872 10870 10869 10867 10865 10863 10860 10858 10856 10854 10853 10852 10850 10849 10847 10845 10844
10907 10909 10910 10912 10914 10916 10917 10919 10920 10922 10923 10924 10926 10927 10928 10929 10929 10930 10931 10931 10931 10930 10930 10929 10929 10928 10928 10927 10926 10924 10923 10923 10922 10921 10920 10920 10920 10919 10918 10916 10915 10915 10914 10913 10910 10907 10905 10903 10901 10898 10896 10896 10895 10891 10889 10888 10887 10886 10883 10879 10878 10878 10875 10874 10873 10870 10868 10867 10867 10866 10864 10862 10860 10859 10857 10854 10852 10850 10848 10846 10845 10843 10842 10839 10837
10901 10902 10904 10905 10908 10909 10911 10913 10914 10916 10917 10918 10920 10920 10921 10923 10923 10924 10925 10925 10925 10924 10924 10924 10923 10923 10923 10922 10921 10920 10919 10918 10917 10916 10915 10915 10914 10914 10913 10912 10911 10912 10911 10909 10906 10903 10901 10899 10897 10894 10892 10891 10890 10888 10885 10883 10881 10880 10878 10875 10874 10874 10873 10871 10870 10868 10865 10863 10861 10860 10859 10857 10855 10854 10852 10850 10849 10846 10844 10842 10840 10838 10836 10834 10832
10895 10897 10898 10900 10901 10903 10905 10907 10908 10910 10911 10912 10913 10914 10915 10916 10917 10918 10918 10919 10919 10919 10919 10919 10919 10918 10918 10917 10917 10916 10915 10914 10913 10910 10909 10909 10908 10908 10908 10906 10906 10907 10906 10903 10900 10898 10896 10894 10893 10891 10888 10885 10884 10883 10881 10878 10876 10874 10873 10871 10869 10869 10869 10868 10867 10864 10861 10860 10858 10855 10853 10852 10851 10849 10847 10845 10844 10842 10840 10837 10834 10833 10832 10830 10828
10889 10891 10893 10895 10896 10897 10899 10901 10902 10904 10905 10906 10907 10908 10909 10910 10910 10911 10912 10913 10914 10914 10914 10914 10914 10914 10914 10913 10913 10912 10910 10910 10908 10905 10903 10903 10902 10902 10901 10900 10899 10900 10899 10897 10893 10891 10890 10889 10888 10887 10885 10882 10879 10877 10875 10872 10870 10869 10868 10866 10865 10865 10864 10864 10862 10859 10855 10853 10852 10851 10849 10847 10846 10844 10842 10840 10839 10838 10836 10832 10829 10828 10827 10826 10823
10884 10885 10887 10889 10890 10892 10893 10895 10896 10898 10899 10901 10902 10903 10904 10905 10905 10906 10907 10908 10908 10908 10909 10909 10909 10909 10909 10909 10908 10908 10906 10906 10904 10902 10899 10897 10897 10896 10895 10893 10893 10893 10893 10890 10887 10885 10884 10883 10882 10881 10879 10877 10873 10870 10868 10866 10864 10864 10862 10861 10861 10860 10859 10857 10856 10853 10850 10848 10847 10846 10844 10842 10840 10839 10838 10836 10834 10832 10831 10827 10825 10823 10822 10821 10818
10877 10879 10881 10883 10884 10886 10888 10889 10890 10892 10894 10896 10897 10898 10899 10900 10901 10901 10902 10902 10903 10903 10903 10904 10904 10904 10904 10904 10903 10903 10902 10901 10900 10899 10896 10893 10892 10890 10889 10887 10886 10886 10886 10884 10880 10879 10879 10878 10876 10874 10871 10868 10866 10863 10860 10858 10858 10858 10857 10856 10856 10855 10853 10852 10850 10849 10846 10844 10843 10841 10839 10838 10835 10834 10834 10832 10829 10827 10825 10823 10821 10819 10818 10816 10814
10872 10873 10875 10877 10879 10881 10882 10884 10885 10887 10889 10890 10891 10892 10893 10895 10895 10896 10896 10897 10897 10898 10898 10899 10899 10898 10898 10898 10898 10897 10897 10896 10895 10895 10893 10890 10887 10884 10882 10881 10879 10878 10879 10877 10873 10872 10873 10871 10870 10867 10863 10860 10857 10855 10853 10851 10851 10853 10853 10851 10851 10850 10848 10846 10846 10845 10844 10842 10840 10838 10836 10834 10832 10831 10830 10828 10825 10822 10820 10818 10817 10816 10814 10811 10809
10867 10868 10870 10872 10874 10876 10877 10879 10881 10882 10884 10885 10886 10886 10887 10888 10889 10890 10890 10891 10892 10892 10892 10892 10893 10893 10893 10892 10892 10891 10891 10890 10889 10890 10890 10887 10883 10879 10877 10876 10873 10872 10872 10870 10867 10866 10866 10864 10862 10859 10856 10852 10850 10847 10846 10844 10844 10846 10847 10845 10844 10843 10842 10840 10841 10841 10840 10838 10836 10835 10832 10830 10828 10826 10825 10823 10821 10817 10815 10813 10812 10811 10809 10807 10804
10861 10863 10865 10867 10869 10871 10872 10874 10875 10877 10878 10879 10880 10881 10881 10882 10883 10884 10885 10886 10886 10886 10886 10886 10887 10887 10887 10887 10886 10886 10884 10883 10883 10883 10883 10882 10880 10876 10874 10871 10868 10866 10864 10862 10861 10860 10859 10856 10854 10851 10848 10845 10843 10841 10839 10837 10836 10837 10838 10838 10837 10836 10835 10835 10835 10835 10834 10832 10832 10830 10828 10825 10823 10821 10820 10818 10815 10813 10810 10808 10807 10805 10803 10801 10799
10856 10858 10860 10862 10863 10865 10866 10868 10869 10871 10872 10873 10874 10875 10875 10876 10877 10878 10879 10880 10879 10879 10880 10880 10881 10881 10881 10880 10880 10880 10878 10877 10877 10877 10877 10876 10875 10872 10869 10865 10862 10859 10856 10854 10854 10854 10852 10849 10846 10843 10840 10838 10836 10835 10833 10831 10830 10829 10830 10830 10829 10828 10828 10828 10829 10830 10829 10828 10827 10826 10823 10821 10819 10816 10814 10813 10810 10808 10806 10804 10801 10798 10796 10795 10793
10850 10853 10854 10856 10858 10858 10859 10862 10863 10864 10865 10867 10867 10868 10869 10869 10870 10872 10873 10873 10872 10872 10873 10874 10875 10875 10874 10873 10873 10873 10872 10870 10870 10870 10870 10869 10868 10866 10863 10859 10856 10852 10848 10846 10846 10846 10844 10841 10839 10836 10833 10831 10829 10828 10826 10824 10824 10822 10822 10822 10821 10821 10822 10823 10826 10828 10827 10825 10823 10821 10819 10817 10815 10811 10809 10807 10805 10802 10801 10799 10796 10793 10791 10789 10787
10845 10847 10848 10850 10851 10851 10853 10856 10856 10856 10858 10860 10860 10860 10861 10862 10864 10865 10865 10865 10865 10865 10866 10867 10867 10867 10867 10866 10866 10866 10866 10864 10863 10862 10862 10861 10860 10859 10856 10853 10849 10845 10841 10839 10838 10837 10834 10833 10832 10829 10825 10822 10820 10819 10817 10817 10816 10815 10814 10813 10813 10814 10816 10819 10824 10826 10824 10821 10819 10817 10814 10812 10809 10806 10804 10801 10799 10797 10795 10792 10790 10788 10786 10784 10782
10839 10841 10841 10843 10844 10845 10847 10849 10849 10849 10851 10852 10853 10854 10854 10855 10856 10857 10857 10857 10858 10859 10859 10859 10859 10859 10859 10858 10858 10858 10858 10858 10857 10855 10854 10853 10852 10850 10848 10845 10841 10838 10834 10832 10831 10828 10825 10824 10824 10822 10818 10815 10813 10811 10810 10809 10807 10806 10806 10804 10803 10805 10807 10811 10816 10819 10818 10815 10813 10811 10809 10806 10804 10801 10799 10796 10793 10791 10790 10787 10785 10783 10781 10779 10777
10833 10834 10835 10836 10837 10838 10840 10841 10842 10842 10843 10844 10846 10847 10847 10848 10849 10849 10848 10849 10851 10852 10852 10852 10852 10852 10851 10850 10849 10849 10849 10849 10848 10847 10846 10845 10844 10842 10840 10837 10833 10830 10828 10826 10824 10821 10818 10816 10816 10814 10811 10809 10807 10805 10804 10802 10799 10797 10797 10797 10796 10798 10801 10805 10809 10811 10809 10806 10806 10805 10803 10801 10798 10796 10794 10791 10788 10786 10784 10782 10780 10779 10776 10774 10772
10826 10827 10827 10828 10829 10831 10832 10834 10835 10835 10836 10837 10838 10838 10839 10840 10841 10841 10840 10840 10841 10843 10844 10844 10844 10844 10843 10842 10842 10841 10841 10840 10839 10838 10837 10836 10835 10833 10831 10829 10825 10822 10821 10819 10816 10814 10812 10810 10809 10807 10805 10802 10799 10797 10796 10795 10792 10789 10788 10789 10790 10791 10793 10796 10799 10801 10800 10798 10797 10798 10797 10796 10794 10792 10789 10786 10784 10781 10778 10776 10775 10774 10771 10769 10766
10817 10818 10819 10820 10821 10823 10825 10826 10827 10828 10828 10829 10830 10830 10831 10832 10833 10834 10833 10833 10833 10834 10834 10834 10835 10834 10834 10834 10834 10834 10833 10832 10831 10831 10829 10828 10826 10824 10822 10820 10817 10813 10811 10810 10807 10805 10803 10801 10800 10798 10797 10794 10791 10788 10786 10786 10785 10782 10781 10782 10782 10782 10783 10785 10787 10789 10791 10791 10790 10790 10791 10791 10790 10787 10783 10781 10780 10777 10773 10771 10770 10768 10766 10763 10760
10809 10810 10812 10813 10814 10815 10816 10817 10819 10819 10820 10821 10821 10822 10823 10823 10824 10825 10825 10825 10825 10825 10825 10826 10825 10824 10824 10824 10824 10825 10825 10824 10824 10823 10822 10820 10818 10816 10814 10812 10809 10806 10803 10801 10799 10797 10794 10791 10789 10788 10787 10785 10782 10778 10776 10777 10776 10774 10774 10775 10774 10774 10775 10777 10778 10779 10782 10784 10785 10785 10785 10785 10784 10781 10777 10775 10774 10771 10768 10767 10765 10762 10760 10757 10754
10801 10803 10804 10804 10806 10807 10808 10809 10810 10811 10812 10812 10813 10813 10814 10814 10814 10815 10815 10816 10816 10816 10817 10817 10817 10815 10814 10813 10813 10814 10814 10815 10815 10814 10813 10811 10809 10808 10806 10804 10802 10799 10796 10793 10791 10789 10786 10783 10780 10778 10777 10776 10772 10768 10767 10767 10767 10765 10765 10767 10767 10767 10768 10769 10770 10771 10773 10776 10778 10777 10776 10775 10775 10774 10770 10768 10766 10764 10762 10762 10760 10757 10754 10750 10747
10792 10793 10794 10796 10797 10798 10799 10800 10801 10802 10802 10803 10804 10804 10805 10805 10805 10805 10806 10807 10807 10807 10808 10808 10807 10806 10806 10804 10803 10804 10804 10804 10804 10804 10802 10801 10799 10798 10797 10795 10793 10791 10788 10785 10782 10780 10778 10775 10772 10769 10767 10766 10763 10759 10757 10757 10757 10757 10757 10758 10759 10760 10760 10761 10762 10763 10765 10767 10768 10767 10766 10766 10766 10765 10762 10760 10758 10757 10757 10756 10754 10751 10748 10745 10742
10782 10784 10786 10787 10788 10790 10791 10792 10792 10793 10793 10794 10795 10796 10796 10795 10795 10796 10797 10797 10797 10798 10799 10798 10797 10796 10796 10795 10794 10794 10794 10794 10794 10793 10792 10790 10789 10789 10787 10786 10784 10782 10780 10778 10775 10773 10770 10768 10765 10761 10759 10757 10755 10751 10748 10748 10748 10748 10749 10749 10750 10751 10752 10754 10755 10756 10756 10758 10759 10759 10759 10759 10758 10756 10754 10752 10751 10750 10749 10749 10747 10745 10742 10739 10736
10773 10775 10777 10778 10780 10782 10782 10783 10783 10784 10785 10785 10786 10786 10785 10785 10786 10787 10787 10788 10788 10788 10789 10789 10787 10785 10786 10786 10785 10784 10784 10784 10784 10783 10782 10780 10779 10779 10778 10776 10775 10773 10772 10770 10767 10765 10763 10761 10758 10755 10751 10749 10747 10744 10741 10739 10739 10740 10740 10741 10742 10743 10745 10747 10748 10749 10749 10750 10750 10751 10751 10751 10750 10747 10745 10744 10743 10743 10742 10740 10738 10737 10735 10733 10731
10764 10766 10767 10769 10770 10771 10772 10773 10773 10774 10775 10775 10776 10776 10776 10776 10776 10777 10778 10778 10777 10777 10778 10779 10777 10775 10775 10776 10775 10774 10774 10774 10774 10773 10772 10771 10770 10769 10767 10766 10765 10764 10763 10761 10759 10757 10755 10753 10751 10748 10743 10739 10738 10736 10733 10732 10731 10732 10732 10733 10734 10736 10737 10739 10741 10741 10742 10742 10744 10744 10744 10743 10741 10739 10738 10737 10736 10735 10733 10731 10730 10730 10729 10727 10724
10755 10757 10758 10759 10759 10760 10761 10763 10763 10764 10765 10765 10766 10766 10766 10767 10767 10768 10768 10768 10766 10766 10767 10769 10768 10766 10765 10765 10765 10764 10763 10763 10763 10763 10762 10761 10760 10758 10756 10755 10754 10754 10753 10751 10750 10748 10747 10745 10743 10740 10735 10731 10728 10726 10724 10723 10724 10724 10725 10726 10727 10728 10730 10732 10733 10734 10734 10736 10737 10737 10736 10735 10734 10732 10731 10729 10728 10726 10725 10723 10722 10722 10722 10720 10717
10746 10747 10748 10748 10749 10750 10752 10753 10753 10754 10755 10756 10757 10756 10757 10758 10758 10758 10758 10758 10756 10756 10757 10758 10757 10756 10755 10755 10754 10753 10753 10753 10752 10752 10751 10751 10749 10747 10746 10745 10744 10743 10743 10742 10740 10739 10738 10736 10734 10731 10727 10724 10721 10718 10715 10715 10716 10716 10717 10720 10721 10720 10721 10724 10726 10726 10725 10727 10728 10728 10728 10728 10727 10725 10721 10719 10718 10718 10717 10715 10714 10714 10713 10712 10710
10738 10738 10738 10738 10740 10741 10742 10743 10743 10744 10745 10747 10747 10747 10747 10748 10748 10749 10748 10748 10746 10746 10747 10747 10746 10745 10745 10744 10744 10743 10742 10742 10741 10740 10740 10739 10738 10736 10735 10735 10734 10733 10733 10732 10730 10729 10727 10725 10723 10722 10719 10716 10713 10709 10707 10708 10709 10710 10710 10712 10714 10714 10713 10714 10716 10717 10717 10718 10719 10720 10719 10718 10716 10714 10711 10709 10709 10710 10709 10706 10705 10705 10705 10703 10702
10728 10728 10727 10728 10730 10731 10732 10733 10733 10734 10735 10737 10737 10736 10736 10737 10738 10739 10738 10737 10736 10736 10737 10736 10735 10734 10733 10733 10733 10732 10731 10731 10730 10728 10727 10727 10727 10725 10724 10724 10723 10722 10721 10720 10718 10717 10715 10713 10712 10711 10710 10708 10704 10700 10698 10699 10701 10702 10702 10704 10705 10705 10704 10704 10705 10707 10708 10710 10710 10709 10708 10706 10704 10702 10701 10700 10700 10700 10699 10697 10696 10696 10696 10694 10692
10717 10718 10718 10718 10719 10720 10722 10722 10723 10723 10724 10726 10726 10726 10726 10727 10728 10728 10726 10725 10725 10726 10726 10724 10723 10723 10722 10721 10722 10721 10720 10719 10718 10717 10715 10715 10715 10714 10713 10712 10711 10710 10709 10708 10706 10706 10705 10703 10700 10699 10700 10699 10696 10692 10690 10690 10692 10693 10694 10695 10695 10695 10695 10695 10697 10698 10699 10699 10698 10696 10695 10694 10693 10692 10692 10691 10691 10691 10691 10689 10688 10687 10686 10684 10683
10706 10708 10708 10707 10708 10709 10710 10711 10712 10712 10713 10714 10715 10715 10715 10715 10716 10716 10715 10714 10713 10714 10714 10713 10712 10711 10710 10710 10710 10709 10708 10707 10707 10706 10704 10703 10703 10702 10701 10700 10700 10700 10699 10697 10695 10694 10693 10692 10691 10689 10689 10690 10688 10684 10681 10681 10683 10684 10684 10685 10686 10686 10686 10686 10687 10689 10689 10688 10687 10685 10684 10683 10682 10682 10681 10682 10681 10681 10681 10680 10678 10677 10676 10674 10673
10695 10696 10696 10696 10697 10698 10698 10699 10700 10701 10702 10702 10703 10703 10704 10704 10704 10704 10704 10703 10702 10701 10701 10701 10700 10699 10698 10698 10697 10697 10696 10695 10694 10694 10694 10693 10692 10691 10690 10689 10689 10689 10688 10686 10685 10683 10681 10680 10680 10680 10679 10680 10680 10676 10673 10672 10673 10673 10674 10675 10676 10677 10677 10677 10677 10678 10678 10678 10677 10675 10673 10672 10671 10671 10672 10672 10672 10671 10671 10670 10668 10667 10666 10664 10663
10683 10684 10685 10686 10686 10686 10687 10687 10688 10689 10690 10690 10691 10691 10692 10692 10692 10692 10692 10692 10691 10690 10689 10688 10687 10687 10687 10686 10685 10685 10684 10684 10683 10682 10682 10682 10681 10681 10680 10679 10678 10678 10676 10675 10675 10673 10671 10669 10668 10668 10668 10670 10670 10668 10665 10664 10663 10662 10664 10666 10667 10668 10668 10668 10668 10668 10668 10667 10666 10665 10664 10662 10661 10661 10662 10663 10662 10660 10660 10660 10659 10657 10655 10654 10653
10671 10672 10674 10675 10675 10675 10676 10676 10676 10676 10677 10678 10679 10679 10680 10680 10680 10680 10680 10680 10679 10679 10678 10677 10676 10675 10675 10674 10674 10673 10673 10672 10672 10672 10671 10671 10671 10671 10670 10669 10668 10667 10666 10663 10662 10662 10661 10659 10657 10655 10656 10658 10659 10658 10656 10654 10653 10653 10653 10656 10657 10658 10658 10658 10658 10658 10658 10657 10656 10655 10655 10653 10652 10651 10652 10652 10651 10650 10649 10650 10649 10647 10645 10644 10643
10658 10660 10661 10662 10663 10664 10665 10665 10664 10664 10665 10665 10666 10667 10668 10668 10668 10668 10668 10668 10667 10666 10665 10665 10665 10664 10663 10663 10663 10663 10662 10661 10661 10661 10660 10660 10660 10660 10660 10659 10658 10657 10655 10653 10650 10649 10648 10648 10647 10645 10643 10644 10647 10648 10646 10644 10643 10643 10643 10644 10645 10647 10648 10648 10648 10648 10647 10646 10645 10644 10644 10643 10642 10641 10641 10642 10642 10641 10640 10640 10639 10637 10636 10635 10635